sat.trackr.live / text

‹ back to catalog

LKW-3

NORAD 43146 · 2018-006A

PAYLOAD ACTIVE UNKNOWN

§ Identity

Operator
Country
PRC
Launch date
2018-01-13
Launch site
JSC
Launch vehicle
Mass (kg)
RCS (m²)

External: N2YO · Heavens-Above · Gunter

§ Orbital elements

Epoch: 2026-09-20T05:27:34.177824Z

Period
93.70 min
Inclination
97.6718°
Eccentricity
0.0002613
Mean motion
15.36866886 rev/d
Perigee alt
453.6 km
Apogee alt
457.2 km
Semi-major
6,833.5 km
B*
1.8946e-4
RAAN
67.7008°
Arg perigee
355.5409°
Mean anomaly
4.5811°
Rev number
48,330

§ Raw data

LKW-31 43146U 18006A   26263.22747891  .00006740  00000+0  18946-3 0  99992 43146  97.6718  67.7008 0002613 355.5409   4.5811 15.36866886483303

JSON: /api/v1/satellites/43146 · /tle

For live sub-satellite position, see the globe view (requires WebGL).

§ Visibility from observer

Set your observer location to see the next 7 days of passes ≥ 10°. The values pass through the URL so the page stays shareable.

No JS? Fill the form by hand. The geolocation button needs JavaScript.

§ Radio — SatNOGS DB

ModeDescriptionDownlinkUplink
FM S-band telemetry 2.219 GHz

1 transmitter · refreshed weekly from db.satnogs.org